Tracking 19485 objects as of 22-Jan-2019
HD Live streaming from Space Station
objects crossing your sky now

COSMOS 1997

Track COSMOS 1997 now!
10-day predictions
COSMOS 1997 is classified as:


NORAD ID: 19788
Int'l Code: 1989-009D
Perigee: 1,407.0 km
Apogee: 1,423.3 km
Inclination: 82.6 °
Period: 114.0 minutes
Semi major axis: 7786 km
RCS: 1.1265 m2 (large)
Launch date: February 10, 1989
Source: Commonwealth of Independent States (former USSR) (CIS)
Launch site: PLESETSK MISSILE AND SPACE COMPLEX (PKMTR)
aabbcc
Your satellite tracking list
Your tracking list is empty




NASA's NSSDC Master Catalog

Two Line Element Set (TLE):
1 19788U 89009D   19020.84469844 +.00000038 +00000-0 +14741-3 0  9999
2 19788 082.6199 281.0120 0010476 017.0909 051.6106 12.63624644380949
Source of the keplerian elements: AFSPC